Regional Weather Roundup
Issued by NWS Wakefield, VA

Home | Current Version | Previous Version | Text Only | Print | Product List | Glossary On
Versions: 1 2 3 4 5 6 7 8 9 10 11 12 13 14 15 16 17 18 19 20 21 22 23 24 25 26 27 28 29 30 31 32 33 34 35 36 37 38 39 40 41 42 43 44 45 46 47 48 49 50
929
ASUS41 KAKQ 291615
RWRAKQ

REGIONAL WEATHER ROUNDUP
NATIONAL WEATHER SERVICE WAKEFIELD VA
1200 PM EDT WED JUN 29 2016

Note: "fair" indicates few or no clouds below 12,000 feet with no
significant weather and/or obstructions to visibility. * = Denotes
station may not report precipitation (e.g., rain,snow,etc.),
thunder or fog.

VAZ042-051-052>054-056-291700-
NORTHERN VIRGINIA

CITY           SKY/WX    TMP DP  RH WIND       PRES   REMARKS
WASH NATIONAL  FAIR      81  60  48 NW12      29.95S
DULLES         FAIR      77  58  51 NW9       29.96F
FORT BELVOIR   FAIR      81  59  46 NW14      29.94F
QUANTICO       FAIR      81  63  54 NW9       29.96S
FREDERICKSBRG* FAIR      80  62  54 N8        29.95S
STAFFORD*      FAIR      79  61  52 NW8       30.00F
WARRENTON      FAIR      80  55  40 N13       29.97S
CULPEPER*      PTSUNNY   79  62  56 NW5       29.98S
MANASSAS*      PTSUNNY   79  59  50 NW13      29.96F
LEESBURG*      FAIR      79  63  57 NW17G23   29.98S
WINCHESTER     FAIR      75  57  53 W12G18    30.00S
FRONT ROYAL*   FAIR      77  59  53 NW7       29.99S
LURAY*         CLOUDY    77  59  53 CALM      30.00S
$$

VAZ048-049-060>072-079>083-291700-
CENTRAL AND SOUTH CENTRAL VIRGINIA

CITY           SKY/WX    TMP DP  RH WIND       PRES   REMARKS
RICHMOND       PTSUNNY   80  65  59 NE7       29.95F
CHESTERFIELD*  FAIR      82  57  42 N7        29.97F
PETERSBURG*    FAIR      83  64  53 N7        29.96S
HANOVER        FAIR      79  61  53 NE6       29.97S
TAPPAHANNOCK*  FAIR      82  63  53 N6        29.96S
QUINTON*       FAIR      79  66  64 N7        29.94F
CHARLOTTSVILLE FAIR      80  60  50 CALM      29.98S
GORDONSVILLE*  PTSUNNY   79  60  51 CALM      29.96F
ORANGE*          N/A     82  59  44 W8        29.98F
LOUISA*        FAIR      84  64  51 CALM      29.96F
BUMPASS*       FAIR      78  64  61 CALM      29.97S
FARMVILLE*     FAIR      82  65  55 NE6       29.96F
CREWE*         FAIR      80  67  66 CALM      29.97S
FORT PICKETT*  FAIR      80  69  69 N7        29.97S
CHASE CITY*    FAIR      81  64  56 NW7       29.98S
CLARKSVILLE*   FAIR      81  68  65 N3        29.97S
SOUTH HILL*    FAIR      82  69  63 N6        30.02S
LAWRENCEVILLE* FAIR      81  69  65 CALM      29.96S
EMPORIA*       FAIR      81  68  65 NW3       29.96S
$$

VAZ088>098-291700-
SOUTHEAST VIRGINIA

CITY           SKY/WX    TMP DP  RH WIND       PRES   REMARKS
NORFOLK        FAIR      80  71  74 N8        29.92F
VIRGINIA BEACH FAIR      85  70  60 N13       29.90F
NORFOLK NAVAL  FAIR      83  72  69 N7        29.94S
WEST POINT*    FAIR      82  65  57 NW3       29.95S
SALUDA*        FAIR      80  70  72 NW8       29.93S
NEWPORT NEWS   FAIR      83  69  62 N8        29.92F
LANGLEY AFB    MOSUNNY   82  71  67 NW8       29.92S
FORT EUSTIS    FAIR      80  76  85 NW7       29.92S
WILLIAMSBURG*  FAIR      86  70  58 CALM      29.94F
HR EXEC AP*    FAIR      82  70  65 N5        29.94F
FRANKLIN*      FAIR      82  68  62 N3        29.94S
US460-WAKEFLD  FAIR      83  66  56 N7        29.94S
$$

VAZ020-022-025-037-045-291700-
WEST CENTRAL AND SOUTHWEST VIRGINIA

CITY           SKY/WX    TMP DP  RH WIND       PRES   REMARKS
STAUNTON*      FAIR      74  61  63 CALM      30.03S
WAYNESBORO*    PTSUNNY   74  60  60 SE5       30.02F
HOT SPRINGS VA PTSUNNY   69  53  57 W10G17    30.11S
LYNCHBURG      PTSUNNY   80  61  52 NW5       30.01S
DANVILLE       FAIR      83  64  52 VRB5      29.98S
SOUTH BOSTON*  FAIR      82  64  54 N5        29.98S
MARTINSVILLE   PTSUNNY   82  60  46 S3        30.02F
ROANOKE        PTSUNNY   80  61  52 W6G17     30.03S
BLACKSBURG     PTSUNNY   76  60  56 NW8       30.09S
DUBLIN*        PTSUNNY   78  58  49 W10       30.07F
MARION*        PTSUNNY   74  60  61 NW7       30.11S
HILLSVILLE*    FAIR      74  60  61 NW12      30.08S
RICHLANDS*     PTSUNNY   72  60  64 NW7       30.11R
WISE*          FAIR      73  45  35 W9        30.12S
ABINGDON*      FAIR      78  60  53 NW7       30.07F
$$

MDZ021>025-VAZ099-100-291700-
SOUTHERN MARYLAND AND THE DELMARVA PENINSULA

CITY           SKY/WX    TMP DP  RH WIND       PRES   REMARKS
PATUXENT RIVER MOSUNNY   80  64  58 NW10      29.93S
BAY BRIDGE APT SUNNY     77  64  65 N6        29.93S
LEONARDTOWN    SUNNY     79  63  57 NW8       29.95F
DOVER          MOSUNNY   80  70  71 W8        29.89F
GEORGETOWN     MOSUNNY   81  68  64 NW9       29.90F
EASTON         MOSUNNY   82  66  57 NW10      29.96S
CAMBRIDGE      SUNNY     77  63  61 N9        29.92S
SALISBURY      MOSUNNY   80  68  66 N9        29.90F
OCEAN CITY     MOSUNNY   81  71  71 NW9       29.89F
WALLOPS ISLAND FAIR      83  72  69 NW9       29.90F
ACCOMACK*      PTSUNNY   79  68  69 NW8G17    29.91F
$$

NCZ012>017-030>032-291700-
NORTH CENTRAL AND EASTERN NORTH CAROLINA

CITY           SKY/WX    TMP DP  RH WIND       PRES   REMARKS
ROANOKE RAPIDS FAIR      79  70  73 N3        29.95S
RALEIGH        MOSUNNY   84  64  50 CALM      29.97S
ELIZABETH CITY MOSUNNY   80  71  74 N6        29.93F
AHOSKIE*       SUNNY     78  70  76 CALM      29.95S
EDENTON*       SUNNY     82  68  63 CALM      29.95S
CURRITUCK*     PTSUNNY   79  71  76 W5        29.94S
KILL DEVIL HLS PTSUNNY   82  70  66 N3        29.93R
MANTEO         CLOUDY    77  73  87 NW5       29.94S
CAPE HATTERAS  CLOUDY    82  72  71 VRB6      29.94S
TARBORO*       FAIR      82  71  69 CALM      29.96S
GOLDSBORO      SUNNY     84  74  73 VRB5      29.95R
WASHINGTON     SUNNY     79  72  77 CALM      29.95F
GREENVILLE     MOSUNNY   81  72  74 N5        29.98S
NEW BERN       CLOUDY    77  70  79 NW5       29.98R
WILMINGTON     LGT RAIN  83  73  72 VRB3      29.96R
$$

VAZ048-291700-
ELSEWHERE

CITY           SKY/WX    TMP DP  RH WIND       PRES   REMARKS
HARRISBURG PA  MOSUNNY   76  55  48 NW13      29.95S
BALTIMORE      PTSUNNY   78  60  53 NW10      29.93S
ANNAPOLIS      MOSUNNY   79  62  56 N7        29.93S
ANDREWS AFB    FAIR      80  59  48 NW15      29.94S
PHILADELPHIA   MOSUNNY   81  60  48 NW8       29.90F
HENDERSON NC   MOSUNNY   79  64  60 CALM      29.97F
GREENSBORO     PTSUNNY   85  59  41 NW3       29.99S
ROCKY MOUNT    SUNNY     83  71  67 CALM      29.96S
$$

VAZ100-291700-
MARINE

STATION/POSITION TIME  TEMP    WIND        PRES    WAVE   SWELL
                       AIR SEA DIR/SP/G            HT/PER HT/PER
                 (UTC) (F)     (DEG/KT/KT) (MB)    (FT/S) (FT/S)
BRANDYWINE LGT   1500   72     330/  6/  8   N/A
CAPE MAY NJ      1500   74 72  320/  9/ 12 1012.2R
LEWES DE         1500   72 71  350/ 10/ 12 1012.6R
15NM E FENWICK I 1550   72 72              1012.3F   2/ 8
OCEAN-CITY-INLET 1500   77 73  340/  4/  6 1012.7R
WACHAPREAGUE VA  1500   81 77  310/  3/  5 1012.7R
THOMAS POINT MD  1600   77 75  330/  3/  4 1014.8F
GOOSES REEF MD   1600   77 77  350/  8/  8 1014.5F   1/ 2
COVE POINT MD    1500   74      10/  7/ 12 1014.3S
SOLOMONS ISLAND  1500   76 78  320/  8/ 10   N/A
BISHOPS HEAD MD  1500   77 78  350/  6/ 10 1013.4F
PINEY POINT MD   1500          340/ 11/ 12   N/A
POTOMAC MD       1600   77 79  320/  8/ 10 1012.4F   1
CAMBRIDGE MD     1500   76 78  330/ 11/ 13 1012.6R
LEWISETTA VA     1500   76 77  350/  8/ 11 1013.4F
RAPPAHANNOCK LGT 1500          330/ 13/ 14 1014.0R
STINGRAY PT      1600   76 79   40/  4/  6 1013.9S   1
YORK RVR RNG VA  1500   76     360/  6/  7 1013.0R
YORKTOWN VA      1500   76 78  300/  6/  8 1013.3R
JAMESTOWN VA     1600   78     290/  8/  8   N/A
DOMINION TERM VA 1500   76     310/ 12/ 13 1013.5R
CHES BAY BRIDGE  1500   75 76  320/  8/  9 1013.4R
CAPE HENRY VA    1500   74     310/ 11/ 12   N/A
WILLOUBY STN VA  1500   76     260/  8/  9 1014.5R
CAPE HENRY BUOY  1512      75                N/A     2/ 8
1ST LANDING BUOY 1600   75 77  330/ 12/ 14 1013.0F   1/ 5
CAPE CHARLES BUO 1526      75                N/A     2/ 7
OFFSHORE WE BUOY 1521      74                N/A     2/ 8
64NM E OF VA BCH 1550   74 74  320/  6/  8 1013.0R   2/ 8   2/ 8
DUCK PIER NC     1500   74 74   40/  6/  7 1012.6F
44056 DUCK FRF   1511      75                N/A     2/ 7
OREGON INLET NC  1500   77 80   20/  7/ 10 1013.4R
HATTERAS NC      1500   78 81  340/  9/ 10 1013.3R
DIAMOND SHLS NC  1550   78 83  350/  8/ 10 1013.8R   3/ 8   3/ 8
CAPE LOOKOUT NC  1600   79     290/  4/  4 1014.1R
$$




USA.gov is the U.S. government's official web portal to all federal, state and local government web resources and services.